DW4362 Weather Reports


time (UTC)temp
C
wind
direction
speed
KPH
gust
KPH
rain 1hr
cm
rain 24hr
cm
rain mn
cm
humidity
%
barometer
mb
20260902093220 22 278 0.0 0.0 0.00 0.00 0.00 95 1015.8
20260902083220 22 278 0.0 0.0 0.00 0.00 0.00 95 1015.3
20260902080220 22 278 0.0 0.0 0.00 0.00 0.00 95 1015.3
20260902073219 22 278 0.0 0.0 0.00 0.00 0.00 95 1015.3
20260902063219 23 278 0.0 0.0 0.00 0.00 0.00 95 1015.6
20260902060219 23 278 0.0 0.0 0.00 0.00 0.00 95 1015.7
20260902050219 23 278 0.0 0.0 0.00 0.00 0.00 94 1015.7
20260902043219 23 278 0.0 0.0 0.00 0.00 0.00 94 1015.8
20260902040219 24 278 0.0 0.0 0.00 0.00 0.00 93 1016.1
20260902030219 24 278 0.0 0.0 0.00 0.00 0.00 91 1016.1
20260902023219 25 278 0.0 0.0 0.00 0.00 0.00 89 1015.8
20260902020219 25 278 0.0 0.0 0.00 0.00 0.00 87 1015.6
20260902013219 26 278 0.0 0.0 0.00 0.00 0.00 85 1015.2
20260902010219 26 266 0.0 0.0 0.00 0.00 0.00 81 1015.0
20260902003219 27 266 0.0 0.0 0.00 0.00 0.00 78 1015.0
20260902000219 27 88 0.0 0.0 0.00 0.00 0.00 84 1014.8
20260901230218 29 88 0.0 0.0 0.00 0.00 0.00 79 1014.8
20260901220218 33 233 0.0 0.0 0.00 0.00 0.00 66 1014.5
20260901213218 34 212 3.2 3.2 0.00 0.00 0.00 62 1014.5
20260901210218 34 65 0.0 0.0 0.00 0.00 0.00 61 1014.6
20260901200217 34 217 0.0 0.0 0.00 0.00 0.00 62 1014.8
20260901193218 33 259 0.0 3.2 0.00 0.00 0.00 64 1015.0
20260901190218 32 208 0.0 0.0 0.00 0.00 0.00 72 1015.4
20260901183217 32 290 0.0 3.2 0.00 0.00 0.00 66 1015.9
20260901180217 33 261 3.2 3.2 0.00 0.00 0.00 65 1016.2
20260901170217 33 80 0.0 3.2 0.00 0.00 0.00 64 1017.1
20260901163216 32 358 0.0 0.0 0.00 0.00 0.00 66 1017.2
20260901160217 33 283 0.0 0.0 0.00 0.00 0.00 65 1017.2
20260901153216 32 356 0.0 0.0 0.00 0.00 0.00 73 1017.4
20260901150216 31 359 0.0 3.2 0.00 0.00 0.00 77 1017.3
20260901143216 30 15 0.0 0.0 0.00 0.00 0.00 81 1017.3
20260901133216 26 6 0.0 3.2 0.00 0.00 0.00 95 1017.3
20260901130216 25 8 0.0 0.0 0.00 0.00 0.00 95 1017.3
20260901123215 24 89 0.0 0.0 0.00 0.00 0.00 95 1017.3
20260901120215 23 6 0.0 0.0 0.00 0.00 0.00 95 1017.1
20260901113215 23 68 0.0 0.0 0.00 0.03 0.00 94 1016.5
20260901103215 23 91 0.0 0.0 0.00 0.03 0.00 94 1015.7
20260901100215 23 91 0.0 0.0 0.00 0.03 0.00 94 1015.7